Weather History for KEWR - August, 2013

Change the Weather History Date:

Monday, August 5, 2013

  Actual Average Record
Temperature  
Mean Temperature 71 °F 77 °F  
Max Temperature 80 °F 85 °F 102 °F (1944)
Min Temperature 62 °F 69 °F 57 °F (1951)
Degree Days  
Heating Degree Days 0 0  
Month to date heating degree days 0 0  
Since 1 June heating degree days 8 17  
Since 1 July heating degree days 0 0  
Cooling Degree Days 6 12  
Month to date cooling degree days 43 60  
Year to date cooling degree days 907 758  
Since 1 June cooling degree days 807 682  
Growing Degree Days 21 (Base 50)    
Moisture  
Dew Point 48 °F    
Average Humidity 49    
Maximum Humidity 67    
Minimum Humidity 30    
Precipitation  
Precipitation 0.00 in 0.14 in 1.35 in (1959)
Month to date precipitation 0.72 0.75  
Year to date precipitation 29.45 28.42  
Snow  
Snow 0.00 in 0.00 in 0.00 in (2002)
Month to date snowfall 0.0 0.0  
Since 1 July snowfall 0.0 0.0  
Snow Depth 0.00 in    
Sea Level Pressure  
Sea Level Pressure 30.03 in    
Wind  
Wind Speed 8 mph (NW)    
Max Wind Speed 16 mph    
Max Gust Speed 24 mph    
Visibility 10 miles    
Events      
T = Trace of Precipitation, MM = Missing Value Source: NWS Daily Summary

Daily Weather History Graph

Daily Weather History Graph

Search for Another Location

Airport or City:

Trip Planner

Search our weather history database for the weather conditions in past years. The results will help you decide how hot, cold, wet, or windy it might be!

Date:

Astronomy

Aug. 05, 2013 Rise Set
Actual Time 5:57 AM EDT 8:07 PM EDT
Civil Twilight 5:27 AM EDT 8:37 PM EDT
Nautical Twilight 4:49 AM EDT 9:14 PM EDT
Astronomical Twilight 4:09 AM EDT 9:54 PM EDT
Moon 4:50 AM EDT (8/5) 7:05 PM EDT (8/5)
Length of Visible Light 15h 10m
Length of Day
14h 09m
Waning Crescent, 1% of the Moon is Illuminated
Aug 5
Waning Crescent
Aug 6
New
Aug 14
First Quarter
Aug 20
Full
Aug 28
Last Quarter

Hourly Weather History & Observations

Time (EDT) Temp. Dew Point Humidity Pressure Visibility Wind Dir Wind Speed Gust Speed Precip Events Conditions
12:51 AM 66.9 °F 48.9 °F 52% 29.98 in 10.0 mi NW 11.5 mph - N/A   Clear
1:51 AM 64.9 °F 50.0 °F 58% 29.99 in 10.0 mi WNW 8.1 mph - N/A   Clear
2:51 AM 64.0 °F 50.0 °F 60% 29.99 in 10.0 mi WNW 11.5 mph - N/A   Clear
3:51 AM 63.0 °F 51.1 °F 65% 30.01 in 10.0 mi WNW 5.8 mph - N/A   Clear
4:51 AM 62.1 °F 51.1 °F 67% 30.00 in 10.0 mi West 11.5 mph - N/A   Partly Cloudy
5:51 AM 62.1 °F 51.1 °F 67% 30.02 in 10.0 mi NW 8.1 mph - N/A   Scattered Clouds
6:51 AM 63.0 °F 51.1 °F 65% 30.04 in 10.0 mi NW 11.5 mph - N/A   Partly Cloudy
7:51 AM 66.9 °F 51.1 °F 57% 30.05 in 10.0 mi NW 6.9 mph - N/A   Partly Cloudy
8:51 AM 69.1 °F 48.0 °F 47% 30.06 in 10.0 mi NW 8.1 mph - N/A   Partly Cloudy
9:51 AM 71.1 °F 45.0 °F 39% 30.06 in 10.0 mi NNW 10.4 mph 18.4 mph N/A   Partly Cloudy
10:51 AM 73.9 °F 43.0 °F 33% 30.06 in 10.0 mi North 12.7 mph 17.3 mph N/A   Scattered Clouds
11:51 AM 73.9 °F 42.1 °F 32% 30.06 in 10.0 mi NW 6.9 mph - N/A   Scattered Clouds
12:51 PM 75.9 °F 44.1 °F 32% 30.04 in 10.0 mi NW 12.7 mph 19.6 mph N/A   Scattered Clouds
1:51 PM 77.0 °F 44.1 °F 31% 30.03 in 10.0 mi West 11.5 mph 19.6 mph N/A   Mostly Cloudy
2:51 PM 78.1 °F 46.0 °F 32% 30.02 in 10.0 mi NW 6.9 mph - N/A   Mostly Cloudy
3:51 PM 79.0 °F 46.0 °F 31% 30.01 in 10.0 mi North 10.4 mph 16.1 mph N/A   Scattered Clouds
4:51 PM 79.0 °F 46.0 °F 31% 30.00 in 10.0 mi Variable 5.8 mph - N/A   Mostly Cloudy
5:51 PM 78.1 °F 44.1 °F 30% 30.00 in 10.0 mi NW 12.7 mph 20.7 mph N/A   Mostly Cloudy
6:51 PM 75.9 °F 45.0 °F 33% 30.01 in 10.0 mi NW 5.8 mph - N/A   Mostly Cloudy
7:51 PM 75.9 °F 46.0 °F 35% 30.03 in 10.0 mi NNW 5.8 mph - N/A   Mostly Cloudy
8:51 PM 75.0 °F 46.0 °F 36% 30.04 in 10.0 mi West 5.8 mph - N/A   Mostly Cloudy
9:51 PM 75.0 °F 46.9 °F 37% 30.04 in 10.0 mi West 4.6 mph - N/A   Overcast
10:51 PM 71.1 °F 53.1 °F 53% 30.04 in 10.0 mi SSW 6.9 mph - N/A   Mostly Cloudy
11:51 PM 70.0 °F 54.0 °F 57% 30.04 in 10.0 mi SSW 3.5 mph - N/A   Overcast